| time (UTC) | temp F | wind direction | speed knots | gust knots | rain 1hr in | rain 24hr in | rain mn in | humidity % | barometer mb |
| 20260506142725 | 51 | 58 | 0.9 | 2.6 | 0.00 | 0.00 | 0.00 | 85 | 1019.6 |
| 20260506141823 | 51 | 45 | 1.7 | 2.6 | 0.00 | 0.00 | 0.00 | 85 | 1019.5 |
| 20260506134838 | 50 | 22 | 1.7 | 3.5 | 0.00 | 0.00 | 0.00 | 85 | 1018.9 |
| 20260506133922 | 49 | 45 | 2.6 | 3.5 | 0.00 | 0.00 | 0.00 | 84 | 1018.9 |
| 20260506132923 | 49 | 22 | 3.5 | 5.2 | 0.00 | 0.00 | 0.00 | 85 | 1018.9 |
| 20260506132022 | 50 | 22 | 2.6 | 4.3 | 0.00 | 0.00 | 0.00 | 85 | 1019.0 |
| 20260506130023 | 49 | 45 | 0.9 | 2.6 | 0.00 | 0.00 | 0.00 | 83 | 1019.3 |
| 20260506125023 | 49 | 108 | 0.0 | 1.7 | 0.00 | 0.00 | 0.00 | 83 | 1019.1 |
| 20260506124022 | 49 | 180 | 0.0 | 0.9 | 0.00 | 0.00 | 0.00 | 83 | 1019.3 |
| 20260506123024 | 49 | 180 | 0.0 | 0.0 | 0.00 | 0.00 | 0.00 | 84 | 1018.9 |
| 20260506122022 | 49 | 135 | 0.0 | 0.0 | 0.00 | 0.00 | 0.00 | 84 | 1018.7 |
| 20260506121922 | 50 | 135 | 0.0 | 0.9 | 0.00 | 0.00 | 0.00 | 83 | 1018.7 |
| 20260506120923 | 50 | 67 | 0.0 | 1.7 | 0.00 | 0.00 | 0.00 | 84 | 1018.6 |
| 20260506115923 | 50 | 45 | 0.9 | 1.7 | 0.00 | 0.00 | 0.00 | 83 | 1018.4 |
| 20260506114924 | 50 | 29 | 1.7 | 3.5 | 0.00 | 0.00 | 0.00 | 83 | 1018.4 |
| 20260506113939 | 50 | 45 | 0.9 | 2.6 | 0.00 | 0.00 | 0.00 | 83 | 1018.6 |
| 20260506112025 | 50 | 33 | 0.9 | 2.6 | 0.00 | 0.00 | 0.00 | 83 | 1018.5 |
| 20260506111123 | 50 | 22 | 1.7 | 3.5 | 0.00 | 0.00 | 0.00 | 82 | 1018.3 |
| 20260506110141 | 50 | 45 | 3.5 | 3.5 | 0.00 | 0.00 | 0.00 | 82 | 1018.2 |
| 20260506105125 | 50 | 40 | 2.6 | 4.3 | 0.00 | 0.00 | 0.00 | 82 | 1017.9 |
| 20260506104140 | 50 | 37 | 3.5 | 6.1 | 0.00 | 0.00 | 0.00 | 81 | 1017.8 |
| 20260506103124 | 50 | 40 | 3.5 | 6.1 | 0.00 | 0.00 | 0.00 | 82 | 1017.7 |
| 20260506102222 | 50 | 38 | 4.3 | 6.1 | 0.00 | 0.00 | 0.00 | 81 | 1017.5 |
| 20260506101224 | 50 | 45 | 2.6 | 3.5 | 0.00 | 0.00 | 0.00 | 81 | 1017.5 |
| 20260506100225 | 50 | 45 | 3.5 | 4.3 | 0.00 | 0.00 | 0.00 | 81 | 1017.5 |
| 20260506095323 | 50 | 62 | 2.6 | 3.5 | 0.00 | 0.00 | 0.00 | 81 | 1017.5 |
| 20260506094340 | 50 | 40 | 3.5 | 5.2 | 0.00 | 0.00 | 0.00 | 81 | 1017.6 |
| 20260506093423 | 50 | 44 | 3.5 | 5.2 | 0.00 | 0.00 | 0.00 | 80 | 1017.6 |
| 20260506092425 | 50 | 45 | 3.5 | 4.3 | 0.00 | 0.00 | 0.00 | 81 | 1017.5 |
| 20260506091426 | 50 | 55 | 3.5 | 6.1 | 0.00 | 0.00 | 0.00 | 80 | 1017.5 |
| 20260506090522 | 51 | 45 | 4.3 | 5.2 | 0.00 | 0.00 | 0.00 | 80 | 1017.5 |
| 20260506085523 | 51 | 51 | 1.7 | 3.5 | 0.00 | 0.00 | 0.00 | 80 | 1017.3 |
| 20260506083539 | 51 | 45 | 5.2 | 6.1 | 0.00 | 0.00 | 0.00 | 80 | 1017.2 |
| 20260506082623 | 51 | 46 | 2.6 | 4.3 | 0.00 | 0.00 | 0.00 | 80 | 1017.1 |
| 20260506081623 | 52 | 45 | 2.6 | 4.3 | 0.00 | 0.00 | 0.00 | 79 | 1017.3 |
| 20260506080622 | 52 | 45 | 3.5 | 5.2 | 0.00 | 0.00 | 0.00 | 79 | 1017.2 |
| 20260506072625 | 52 | 45 | 1.7 | 2.6 | 0.00 | 0.00 | 0.00 | 79 | 1016.9 |
| 20260506071723 | 53 | 83 | 0.9 | 2.6 | 0.00 | 0.00 | 0.00 | 79 | 1016.9 |
| 20260506070740 | 53 | 41 | 2.6 | 5.2 | 0.00 | 0.00 | 0.00 | 79 | 1016.8 |
| 20260506062014 | 54 | 45 | 1.7 | 2.6 | 0.00 | 0.00 | 0.00 | 77 | 1016.6 |
| 20260506061015 | 54 | 22 | 0.0 | 0.9 | 0.00 | 0.00 | 0.00 | 78 | 1016.7 |
| 20260506051133 | 54 | 112 | 0.0 | 0.0 | 0.00 | 0.00 | 0.00 | 75 | 1016.6 |
| 20260506043416 | 55 | 86 | 0.9 | 1.7 | 0.00 | 0.00 | 0.00 | 75 | 1016.4 |
| 20260506042514 | 55 | 67 | 0.9 | 1.7 | 0.00 | 0.00 | 0.00 | 76 | 1016.2 |
| 20260506041517 | 56 | 67 | 0.0 | 0.9 | 0.00 | 0.00 | 0.00 | 75 | 1016.1 |
| 20260506040533 | 56 | 67 | 0.0 | 0.9 | 0.00 | 0.00 | 0.00 | 76 | 1016.1 |
| 20260506034416 | 57 | 67 | 0.9 | 1.7 | 0.00 | 0.00 | 0.00 | 74 | 1015.9 |
| 20260506033415 | 57 | 45 | 0.9 | 1.7 | 0.00 | 0.00 | 0.00 | 74 | 1015.8 |
| 20260506032415 | 58 | 90 | 0.9 | 0.9 | 0.00 | 0.00 | 0.00 | 74 | 1015.6 |
| 20260506031415 | 58 | 50 | 0.9 | 1.7 | 0.00 | 0.00 | 0.00 | 75 | 1015.5 |
| 20260506030417 | 58 | 130 | 0.0 | 0.9 | 0.00 | 0.00 | 0.00 | 75 | 1015.6 |
| 20260506025416 | 58 | 112 | 0.9 | 1.7 | 0.00 | 0.00 | 0.00 | 75 | 1015.4 |
| 20260506024514 | 59 | 112 | 0.9 | 1.7 | 0.00 | 0.00 | 0.00 | 74 | 1015.6 |
| 20260506024417 | 59 | 112 | 0.9 | 0.9 | 0.00 | 0.00 | 0.00 | 74 | 1015.6 |
| 20260506023515 | 59 | 74 | 0.0 | 0.0 | 0.00 | 0.00 | 0.00 | 74 | 1015.5 |
| 20260506022518 | 59 | 90 | 0.9 | 1.7 | 0.00 | 0.00 | 0.00 | 75 | 1015.7 |
| 20260506021616 | 60 | 90 | 0.9 | 1.7 | 0.00 | 0.00 | 0.00 | 76 | 1015.6 |
| 20260506020616 | 60 | 90 | 0.9 | 1.7 | 0.00 | 0.00 | 0.00 | 76 | 1015.6 |
| 20260506014814 | 60 | 90 | 1.7 | 2.6 | 0.00 | 0.00 | 0.00 | 75 | 1015.5 |
| 20260506013816 | 60 | 90 | 1.7 | 1.7 | 0.00 | 0.00 | 0.00 | 75 | 1015.4 |
| 20260506011917 | 60 | 63 | 1.7 | 2.6 | 0.00 | 0.00 | 0.00 | 76 | 1015.5 |
| 20260506010916 | 61 | 90 | 1.7 | 1.7 | 0.00 | 0.00 | 0.00 | 76 | 1015.4 |
| 20260506010014 | 61 | 90 | 1.7 | 2.6 | 0.00 | 0.00 | 0.00 | 76 | 1015.4 |
| 20260506005916 | 61 | 90 | 1.7 | 1.7 | 0.00 | 0.00 | 0.00 | 76 | 1015.4 |
| 20260506005833 | 61 | 90 | 1.7 | 1.7 | 0.00 | 0.00 | 0.00 | 76 | 1015.3 |
| 20260506004915 | 61 | 90 | 1.7 | 2.6 | 0.00 | 0.00 | 0.00 | 75 | 1015.3 |
| 20260506003932 | 61 | 67 | 0.9 | 1.7 | 0.00 | 0.00 | 0.00 | 76 | 1015.5 |
| 20260506002015 | 61 | 62 | 1.7 | 3.5 | 0.00 | 0.00 | 0.00 | 77 | 1015.5 |
| 20260506001016 | 61 | 48 | 3.5 | 5.2 | 0.00 | 0.00 | 0.00 | 77 | 1015.6 |
| 20260506000018 | 61 | 59 | 2.6 | 3.5 | 0.00 | 0.00 | 0.00 | 76 | 1015.6 |
| 20260505235116 | 61 | 67 | 1.7 | 3.5 | 0.00 | 0.00 | 0.00 | 77 | 1015.7 |
| 20260505234118 | 61 | 45 | 2.6 | 3.5 | 0.00 | 0.00 | 0.00 | 76 | 1015.8 |
| 20260505233131 | 61 | 45 | 1.7 | 2.6 | 0.00 | 0.00 | 0.00 | 77 | 1015.8 |
| 20260505232116 | 61 | 36 | 3.5 | 3.5 | 0.00 | 0.00 | 0.00 | 78 | 1016.0 |
| 20260505231115 | 61 | 67 | 1.7 | 2.6 | 0.00 | 0.00 | 0.00 | 78 | 1016.1 |
| 20260505231014 | 61 | 67 | 1.7 | 2.6 | 0.00 | 0.00 | 0.00 | 78 | 1016.2 |
| 20260505230034 | 61 | 67 | 1.7 | 2.6 | 0.00 | 0.00 | 0.00 | 78 | 1016.2 |
| 20260505225115 | 61 | 56 | 1.7 | 2.6 | 0.00 | 0.00 | 0.00 | 78 | 1016.1 |
| 20260505224115 | 61 | 45 | 2.6 | 3.5 | 0.00 | 0.00 | 0.00 | 78 | 1016.2 |
| 20260505223117 | 61 | 45 | 2.6 | 5.2 | 0.00 | 0.00 | 0.00 | 77 | 1016.4 |
| 20260505222116 | 61 | 45 | 2.6 | 3.5 | 0.00 | 0.00 | 0.00 | 78 | 1016.4 |
| 20260505221215 | 61 | 72 | 1.7 | 2.6 | 0.00 | 0.00 | 0.00 | 79 | 1016.5 |
| 20260505220115 | 61 | 22 | 2.6 | 3.5 | 0.00 | 0.00 | 0.00 | 79 | 1016.5 |
| 20260505215117 | 61 | 45 | 2.6 | 3.5 | 0.00 | 0.00 | 0.00 | 78 | 1016.5 |
| 20260505214115 | 61 | 45 | 2.6 | 3.5 | 0.00 | 0.00 | 0.00 | 79 | 1016.6 |
| 20260505213132 | 60 | 45 | 2.6 | 3.5 | 0.00 | 0.00 | 0.00 | 78 | 1016.7 |
| 20260505212131 | 60 | 47 | 2.6 | 3.5 | 0.00 | 0.00 | 0.00 | 79 | 1016.8 |
| 20260505211218 | 59 | 42 | 4.3 | 6.1 | 0.00 | 0.00 | 0.00 | 78 | 1016.7 |
| 20260505210215 | 59 | 45 | 1.7 | 4.3 | 0.00 | 0.00 | 0.00 | 79 | 1016.8 |
| 20260505205232 | 59 | 52 | 2.6 | 4.3 | 0.00 | 0.00 | 0.00 | 79 | 1016.8 |
| 20260505204231 | 58 | 30 | 5.2 | 6.1 | 0.00 | 0.00 | 0.00 | 79 | 1016.9 |
| 20260505203231 | 58 | 66 | 0.9 | 2.6 | 0.00 | 0.00 | 0.00 | 78 | 1016.9 |
| 20260505202232 | 58 | 45 | 1.7 | 2.6 | 0.00 | 0.00 | 0.00 | 77 | 1016.8 |
| 20260505201215 | 58 | 31 | 3.5 | 6.1 | 0.00 | 0.00 | 0.00 | 78 | 1016.8 |
| 20260505200217 | 57 | 15 | 3.5 | 4.3 | 0.00 | 0.00 | 0.00 | 78 | 1016.9 |
| 20260505195315 | 57 | 36 | 2.6 | 5.2 | 0.00 | 0.00 | 0.00 | 78 | 1016.9 |
| 20260505194316 | 57 | 22 | 4.3 | 6.1 | 0.00 | 0.00 | 0.00 | 77 | 1016.9 |
| 20260505191417 | 57 | 31 | 4.3 | 6.1 | 0.00 | 0.00 | 0.00 | 78 | 1016.8 |
| 20260505190433 | 57 | 26 | 3.5 | 4.3 | 0.00 | 0.00 | 0.00 | 78 | 1016.8 |
| 20260505185416 | 57 | 22 | 4.3 | 7.8 | 0.00 | 0.00 | 0.00 | 77 | 1016.9 |
| 20260505184514 | 57 | 40 | 3.5 | 5.2 | 0.00 | 0.00 | 0.00 | 78 | 1017.0 |
| 20260505183516 | 57 | 37 | 3.5 | 4.3 | 0.00 | 0.00 | 0.00 | 77 | 1016.9 |
| 20260505182518 | 57 | 24 | 3.5 | 4.3 | 0.00 | 0.00 | 0.00 | 76 | 1016.8 |
| 20260505181615 | 57 | 30 | 4.3 | 7.0 | 0.00 | 0.00 | 0.00 | 76 | 1016.7 |
| 20260505180714 | 57 | 48 | 2.6 | 3.5 | 0.00 | 0.00 | 0.00 | 77 | 1016.7 |
| 20260505175732 | 57 | 40 | 4.3 | 8.7 | 0.00 | 0.00 | 0.00 | 77 | 1016.7 |
| 20260505172831 | 56 | 45 | 3.5 | 4.3 | 0.00 | 0.00 | 0.00 | 76 | 1016.7 |
| 20260505171817 | 55 | 45 | 2.6 | 2.6 | 0.00 | 0.00 | 0.00 | 75 | 1016.8 |
| 20260505170814 | 54 | 45 | 2.6 | 2.6 | 0.00 | 0.00 | 0.00 | 74 | 1016.8 |
| 20260505170717 | 54 | 63 | 1.7 | 3.5 | 0.00 | 0.00 | 0.00 | 74 | 1016.7 |
| 20260505165715 | 54 | 45 | 3.5 | 5.2 | 0.00 | 0.00 | 0.00 | 74 | 1016.7 |
| 20260505164716 | 54 | 72 | 1.7 | 2.6 | 0.00 | 0.00 | 0.00 | 74 | 1016.8 |
| 20260505163732 | 53 | 90 | 1.7 | 1.7 | 0.00 | 0.00 | 0.00 | 74 | 1016.6 |
| 20260505162817 | 53 | 45 | 2.6 | 3.5 | 0.00 | 0.00 | 0.00 | 72 | 1016.6 |
| 20260505161814 | 53 | 56 | 0.9 | 2.6 | 0.00 | 0.00 | 0.00 | 72 | 1016.6 |
| 20260505160816 | 53 | 90 | 1.7 | 2.6 | 0.00 | 0.00 | 0.00 | 72 | 1016.7 |
| 20260505160717 | 53 | 90 | 1.7 | 1.7 | 0.00 | 0.00 | 0.00 | 71 | 1016.6 |
| 20260505152817 | 53 | 67 | 1.7 | 2.6 | 0.00 | 0.00 | 0.00 | 71 | 1016.4 |
| 20260505151830 | 52 | 90 | 0.9 | 1.7 | 0.00 | 0.00 | 0.00 | 69 | 1016.2 |
| 20260505150830 | 52 | 67 | 0.9 | 1.7 | 0.00 | 0.00 | 0.00 | 69 | 1016.2 |